• In Hungary
  • List of Countries
  • For 7 days
  • Water Temperature
  • Satellite Maps
  • Weather Map
  • News
  • Weather Widgets
  • user-avatar
    Login

    Hourly Weather Rembieszyce

    Today, 18 November, Saturday

    Time Temperature Precipitation Wind Pressure Humidity
    00:00 +3°C° 0.1 mm 2 mps 745 mmHg 94%
    01:00 +3°C° 0 mm 2 mps 745 mmHg 94%
    02:00 +3°C° 0 mm 2 mps 745 mmHg 94%
    03:00 +3°C° 0 mm 2 mps 744 mmHg 94%
    04:00 +4°C° 0 mm 1 mps 744 mmHg 94%
    05:00 +3°C° 0 mm 1 mps 744 mmHg 93%
    06:00 +3°C° 0 mm 1 mps 744 mmHg 92%
    07:00 +3°C° 0 mm 1 mps 744 mmHg 86%
    08:00 +4°C° 0 mm 1 mps 743 mmHg 80%
    09:00 +4°C° 0 mm 2 mps 743 mmHg 74%
    10:00 +4°C° 0 mm 2 mps 743 mmHg 68%
    11:00 +4°C° 0 mm 2 mps 742 mmHg 66%
    12:00 +4°C° 0 mm 3 mps 742 mmHg 64%
    13:00 +4°C° 0 mm 3 mps 741 mmHg 62%
    14:00 +3°C° 0 mm 3 mps 741 mmHg 66%
    15:00 +4°C° 0 mm 2 mps 740 mmHg 69%
    16:00 +3°C° 0 mm 2 mps 740 mmHg 73%
    17:00 +1°C° 0 mm 3 mps 739 mmHg 74%
    18:00 +1°C° 0 mm 3 mps 739 mmHg 76%
    19:00 +1°C° 0 mm 3 mps 738 mmHg 78%
    20:00 0°C° 0 mm 4 mps 738 mmHg 78%
    21:00 +1°C° 0 mm 4 mps 738 mmHg 79%
    22:00 +1°C° 0 mm 5 mps 737 mmHg 79%
    23:00 +1°C° 0 mm 5 mps 737 mmHg 78%

    Tomorrow, 19 November, Sunday

    Time Temperature Precipitation Wind Pressure Humidity
    00:00 0°C° 0 mm 5 mps 736 mmHg 78%
    01:00 0°C° 0 mm 5 mps 736 mmHg 77%
    02:00 0°C° 0.1 mm 5 mps 735 mmHg 79%
    03:00 0°C° 0.1 mm 5 mps 735 mmHg 80%
    04:00 0°C° 0.1 mm 5 mps 735 mmHg 81%
    05:00 0°C° 0 mm 5 mps 735 mmHg 83%
    06:00 0°C° 0 mm 5 mps 735 mmHg 85%
    07:00 -1°C° 0 mm 4 mps 735 mmHg 87%
    08:00 0°C° 0 mm 5 mps 735 mmHg 83%
    09:00 +1°C° 0 mm 5 mps 735 mmHg 78%
    10:00 +2°C° 0 mm 6 mps 735 mmHg 74%
    11:00 +2°C° 0 mm 6 mps 735 mmHg 70%
    12:00 +3°C° 0 mm 6 mps 735 mmHg 67%
    13:00 +3°C° 0 mm 6 mps 735 mmHg 63%
    14:00 +3°C° 0 mm 6 mps 734 mmHg 66%
    15:00 +2°C° 0 mm 5 mps 734 mmHg 69%
    16:00 +1°C° 0 mm 5 mps 734 mmHg 71%
    17:00 +1°C° 0.1 mm 5 mps 734 mmHg 73%
    18:00 +1°C° 0.1 mm 5 mps 734 mmHg 75%
    19:00 +1°C° 0.1 mm 6 mps 734 mmHg 77%
    20:00 +1°C° 0.4 mm 6 mps 734 mmHg 79%
    21:00 +1°C° 0.4 mm 6 mps 734 mmHg 81%
    22:00 +1°C° 0.4 mm 6 mps 734 mmHg 83%
    23:00 +1°C° 0.1 mm 5 mps 734 mmHg 83%

    Day after tomorrow, 20 November, Monday

    Time Temperature Precipitation Wind Pressure Humidity
    00:00 0°C° 0.1 mm 5 mps 734 mmHg 83%
    01:00 0°C° 0.1 mm 5 mps 734 mmHg 84%
    02:00 0°C° 0.4 mm 5 mps 734 mmHg 84%
    03:00 -1°C° 0.4 mm 6 mps 734 mmHg 85%
    04:00 -1°C° 0.4 mm 6 mps 734 mmHg 85%
    05:00 -1°C° 0.4 mm 7 mps 734 mmHg 86%
    06:00 -1°C° 0.4 mm 7 mps 734 mmHg 86%
    07:00 -1°C° 0.4 mm 7 mps 735 mmHg 87%
    08:00 -1°C° 0.3 mm 7 mps 735 mmHg 87%
    09:00 -1°C° 0.3 mm 7 mps 736 mmHg 87%
    10:00 0°C° 0.3 mm 7 mps 737 mmHg 87%
    11:00 0°C° 0.3 mm 7 mps 737 mmHg 86%
    12:00 0°C° 0.3 mm 7 mps 738 mmHg 85%
    13:00 0°C° 0.3 mm 7 mps 738 mmHg 85%
    14:00 -1°C° 0 mm 6 mps 738 mmHg 84%
    15:00 0°C° 0 mm 5 mps 739 mmHg 83%
    16:00 -1°C° 0 mm 4 mps 739 mmHg 83%
    17:00 -1°C° 0 mm 4 mps 739 mmHg 85%
    18:00 0°C° 0 mm 3 mps 739 mmHg 87%
    19:00 0°C° 0 mm 3 mps 739 mmHg 89%
    20:00 0°C° 0 mm 3 mps 739 mmHg 91%
    21:00 0°C° 0 mm 3 mps 739 mmHg 92%
    22:00 -1°C° 0 mm 3 mps 739 mmHg 93%
    23:00 0°C° 0.1 mm 3 mps 739 mmHg 93%

    21 November, Tuesday

    Time Temperature Precipitation Wind Pressure Humidity
    00:00 0°C° 0.1 mm 3 mps 738 mmHg 93%
    01:00 +1°C° 0.1 mm 2 mps 738 mmHg 93%
    02:00 +1°C° 0.3 mm 2 mps 737 mmHg 93%
    03:00 +1°C° 0.3 mm 2 mps 737 mmHg 93%
    04:00 +1°C° 0.3 mm 2 mps 736 mmHg 93%
    05:00 +1°C° 0.4 mm 2 mps 736 mmHg 94%
    06:00 +1°C° 0.4 mm 2 mps 736 mmHg 94%
    07:00 +1°C° 0.4 mm 2 mps 735 mmHg 94%
    08:00 +2°C° 0.1 mm 1 mps 736 mmHg 94%
    09:00 +3°C° 0.1 mm 1 mps 736 mmHg 94%
    10:00 +3°C° 0.1 mm 1 mps 736 mmHg 93%
    11:00 +4°C° 0 mm 1 mps 736 mmHg 92%
    12:00 +4°C° 0 mm 1 mps 737 mmHg 90%
    13:00 +4°C° 0 mm 1 mps 737 mmHg 89%
    14:00 +4°C° 0 mm 1 mps 737 mmHg 90%
    15:00 +3°C° 0 mm 1 mps 737 mmHg 91%
    16:00 +3°C° 0 mm 1 mps 738 mmHg 92%
    17:00 +3°C° 0 mm 1 mps 738 mmHg 92%
    18:00 +3°C° 0 mm 1 mps 738 mmHg 91%
    19:00 +3°C° 0 mm 1 mps 739 mmHg 91%
    20:00 +2°C° 0 mm 0 mps 739 mmHg 91%
    21:00 +2°C° 0 mm 0 mps 739 mmHg 90%
    22:00 +2°C° 0 mm 0 mps 740 mmHg 90%
    23:00 +1°C° 0 mm 0 mps 740 mmHg 90%

    22 November, Wednesday

    Time Temperature Precipitation Wind Pressure Humidity
    00:00 0°C° 0 mm 0 mps 740 mmHg 90%
    01:00 0°C° 0 mm 0 mps 740 mmHg 91%
    02:00 0°C° 0 mm 0 mps 741 mmHg 91%
    03:00 0°C° 0 mm 0 mps 741 mmHg 91%
    04:00 +1°C° 0 mm 1 mps 741 mmHg 91%
    05:00 +1°C° 0 mm 1 mps 741 mmHg 91%
    06:00 +1°C° 0 mm 1 mps 741 mmHg 91%
    07:00 -1°C° 0 mm 2 mps 741 mmHg 91%
    08:00 +1°C° 0 mm 2 mps 741 mmHg 89%
    09:00 0°C° 0 mm 3 mps 742 mmHg 88%
    10:00 +1°C° 0 mm 3 mps 742 mmHg 87%
    11:00 +2°C° 0 mm 3 mps 741 mmHg 86%
    12:00 +1°C° 0 mm 4 mps 741 mmHg 86%
    13:00 +3°C° 0 mm 4 mps 741 mmHg 86%
    14:00 +2°C° 0 mm 3 mps 741 mmHg 88%
    15:00 +2°C° 0 mm 3 mps 740 mmHg 90%
    16:00 +2°C° 0 mm 3 mps 740 mmHg 92%
    17:00 +3°C° 0 mm 3 mps 741 mmHg 92%
    18:00 +3°C° 0 mm 3 mps 741 mmHg 93%
    19:00 +3°C° 0 mm 3 mps 741 mmHg 93%
    20:00 +3°C° 0 mm 3 mps 741 mmHg 93%
    21:00 +3°C° 0 mm 3 mps 741 mmHg 92%
    22:00 +3°C° 0 mm 3 mps 741 mmHg 92%
    23:00 +2°C° 0 mm 3 mps 741 mmHg 92%

    23 November, Thursday

    Time Temperature Precipitation Wind Pressure Humidity
    00:00 +2°C° 0 mm 3 mps 742 mmHg 91%
    01:00 +2°C° 0 mm 3 mps 742 mmHg 91%
    02:00 +2°C° 0 mm 3 mps 742 mmHg 91%
    03:00 +2°C° 0 mm 3 mps 742 mmHg 91%
    04:00 +3°C° 0 mm 2 mps 742 mmHg 90%
    05:00 +2°C° 0 mm 2 mps 742 mmHg 90%
    06:00 +2°C° 0 mm 2 mps 742 mmHg 89%
    07:00 +2°C° 0 mm 2 mps 742 mmHg 89%
    08:00 +4°C° 0 mm 2 mps 743 mmHg 85%
    09:00 +5°C° 0 mm 2 mps 743 mmHg 82%
    10:00 +5°C° 0 mm 3 mps 743 mmHg 78%
    11:00 +7°C° 0 mm 2 mps 743 mmHg 76%
    12:00 +8°C° 0 mm 2 mps 743 mmHg 74%
    13:00 +8°C° 0 mm 2 mps 743 mmHg 72%
    14:00 +7°C° 0 mm 2 mps 743 mmHg 75%
    15:00 +7°C° 0 mm 2 mps 743 mmHg 78%
    16:00 +6°C° 0 mm 2 mps 743 mmHg 82%
    17:00 +5°C° 0 mm 2 mps 743 mmHg 83%
    18:00 +4°C° 0 mm 3 mps 743 mmHg 83%
    19:00 +4°C° 0 mm 3 mps 744 mmHg 84%
    20:00 +4°C° 0 mm 3 mps 744 mmHg 85%
    21:00 +4°C° 0 mm 3 mps 744 mmHg 86%
    22:00 +4°C° 0 mm 4 mps 744 mmHg 88%
    23:00 +4°C° 0 mm 4 mps 744 mmHg 88%
    Show more